Vilnius, Lithuania

2:56 AM EEST on May 25, 2017 (GMT +0300)
Vilnius International

Weather History for EYVI - November, 2013

Change the Weather History Date:

Friday, November 15, 2013

  Actual Average Record
Temperature  
Mean Temperature 36 °F -  
Max Temperature 38 °F 34 °F 55 °F (2010)
Min Temperature 35 °F 26 °F 12 °F (2007)
Degree Days  
Heating Degree Days 28    
Moisture  
Dew Point 35 °F    
Average Humidity 93    
Maximum Humidity 100    
Minimum Humidity 80    
Precipitation  
Precipitation 0.00 in 0.07 in - ()
Sea Level Pressure  
Sea Level Pressure 30.31 in    
Wind  
Wind Speed 6 mph ()    
Max Wind Speed 10 mph    
Max Gust Speed -    
Visibility 2.5 miles    
Events Fog    
Averages and records for this station are not official NWS values.
T = Trace of Precipitation, MM = Missing Value Source: Averaged Metar Reports

Daily Weather History Graph

Daily Weather History Graph

Search for Another Location

Airport or City:

Trip Planner

Search our weather history database for the weather conditions in past years. The results will help you decide how hot, cold, wet, or windy it might be!

Date:

Astronomy

Nov. 15, 2013 Rise Set
Actual Time 7:49 AM EET 4:17 PM EET
Civil Twilight 7:08 AM EET 4:57 PM EET
Nautical Twilight 6:24 AM EET 5:41 PM EET
Astronomical Twilight 5:42 AM EET 6:23 PM EET
Moon 3:19 PM EET (11/15) 5:06 AM EET (11/15)
Length of Visible Light 9h 48m
Length of Day
8h 27m
Waxing Gibbous, 95% of the Moon is Illuminated
Nov 15
Waxing Gibbous
Nov 17
Full
Nov 25
Last Quarter
Dec 3
New
Dec 9
First Quarter

Hourly Weather History & Observations

Time (EET) Temp. Windchill Dew Point Humidity Pressure Visibility Wind Dir Wind Speed Gust Speed Precip Events Conditions
12:20 AM 39.2 °F 35.9 °F 39.2 °F 100% 30.27 in 1.4 mi SW 4.6 mph - N/A   Overcast
12:50 AM 39.2 °F 35.9 °F 39.2 °F 100% 30.27 in 1.4 mi SW 4.6 mph - N/A   Overcast
1:20 AM 39.2 °F 35.9 °F 37.4 °F 93% 30.27 in 1.4 mi WSW 4.6 mph - N/A   Overcast
1:50 AM 39.2 °F 35.0 °F 37.4 °F 93% 30.27 in 1.4 mi WSW 5.8 mph - N/A   Overcast
2:00 AM 38 °F - 37 °F 97% 30.32 in 5 mi WSW 2.2 mph - -   Mist
2:20 AM 39.2 °F 35.0 °F 37.4 °F 93% 30.27 in 1.4 mi SW 5.8 mph - N/A   Overcast
2:50 AM 39.2 °F 35.0 °F 37.4 °F 93% 30.27 in 1.4 mi SW 5.8 mph - N/A   Overcast
3:20 AM 39.2 °F 35.0 °F 37.4 °F 93% 30.27 in 1.4 mi SSW 5.8 mph - N/A   Overcast
3:45 AM 37.4 °F 32.8 °F 37.4 °F 100% 30.27 in 0.9 mi South 5.8 mph - N/A   Overcast
3:50 AM 37.4 °F 32.1 °F 37.4 °F 100% 30.30 in 0.3 mi South 6.9 mph - N/A Fog Fog
4:20 AM 37.4 °F 31.4 °F 37.4 °F 100% 30.30 in 1.0 mi SSW 8.1 mph - N/A   Overcast
4:50 AM 35.6 °F 29.2 °F 35.6 °F 100% 30.30 in 1.4 mi SSW 8.1 mph - N/A   Overcast
5:00 AM 36 °F - 35 °F 96% 30.35 in 5 mi SSW 4.5 mph - -   Mist
5:20 AM 35.6 °F 29.9 °F 35.6 °F 100% 30.30 in 1.8 mi SSW 6.9 mph - N/A   Overcast
5:50 AM 35.6 °F 29.9 °F 35.6 °F 100% 30.30 in 1.6 mi SSW 6.9 mph - N/A   Overcast
6:20 AM 35.6 °F 29.9 °F 35.6 °F 100% 30.30 in 1.8 mi SSW 6.9 mph - N/A   Overcast
6:50 AM 37.4 °F 32.8 °F 37.4 °F 100% 30.30 in 1.8 mi SW 5.8 mph - N/A   Overcast
7:20 AM 37.4 °F 33.8 °F 37.4 °F 100% 30.33 in 1.4 mi SW 4.6 mph - N/A   Overcast
7:50 AM 35.6 °F 29.2 °F 35.6 °F 100% 30.33 in 1.4 mi SSW 8.1 mph - N/A   Overcast
8:00 AM 36 °F - 35 °F 94% 30.37 in 3 mi SSW 6.7 mph - -   Mist
8:20 AM 35.6 °F 29.9 °F 35.6 °F 100% 30.33 in 1.4 mi South 6.9 mph - N/A   Overcast
8:50 AM 35.6 °F 30.7 °F 35.6 °F 100% 30.33 in 1.4 mi South 5.8 mph - N/A   Overcast
9:20 AM 37.4 °F 32.1 °F 35.6 °F 93% 30.33 in 1.6 mi SSW 6.9 mph - N/A   Overcast
9:50 AM 37.4 °F 32.1 °F 35.6 °F 93% 30.33 in 1.6 mi SW 6.9 mph - N/A   Overcast
10:20 AM 37.4 °F 30.8 °F 35.6 °F 93% 30.33 in 1.6 mi SSW 9.2 mph - N/A   Overcast
10:50 AM 37.4 °F 31.4 °F 35.6 °F 93% 30.33 in 2.5 mi SSW 8.1 mph - N/A   Overcast
11:00 AM 37 °F - 35 °F 87% 30.40 in 6 mi SW 6.7 mph - -   Mist
11:20 AM 37.4 °F 30.8 °F 35.6 °F 93% 30.33 in 2.5 mi SSW 9.2 mph - N/A   Overcast
11:50 AM 37.4 °F 31.4 °F 35.6 °F 93% 30.33 in 2.5 mi SW 8.1 mph - N/A   Overcast
12:20 PM 37.4 °F 31.4 °F 35.6 °F 93% 30.33 in 2.5 mi SW 8.1 mph - N/A   Overcast
12:50 PM 39.2 °F 34.2 °F 35.6 °F 87% 30.33 in 2.5 mi SW 6.9 mph - N/A   Overcast
1:20 PM 39.2 °F 34.2 °F 35.6 °F 87% 30.33 in 2.5 mi SW 6.9 mph - N/A   Overcast
1:50 PM 39.2 °F 33.6 °F 33.8 °F 81% 30.33 in 2.5 mi WSW 8.1 mph - N/A   Overcast
2:00 PM 38 °F - 35 °F 83% 30.38 in 7 mi WSW 4.5 mph - -   Overcast
2:20 PM 37.4 °F 31.4 °F 33.8 °F 87% 30.33 in 2.5 mi WSW 8.1 mph - N/A   Overcast
2:50 PM 37.4 °F 32.8 °F 35.6 °F 93% 30.33 in 2.5 mi SW 5.8 mph - N/A   Overcast
3:20 PM 37.4 °F 32.1 °F 33.8 °F 87% 30.30 in 2.5 mi SW 6.9 mph - N/A   Overcast
3:50 PM 37.4 °F 32.1 °F 33.8 °F 87% 30.30 in 2.5 mi SW 6.9 mph - N/A   Overcast
4:20 PM 37.4 °F 32.8 °F 33.8 °F 87% 30.30 in 2.5 mi SW 5.8 mph - N/A   Overcast
4:50 PM 37.4 °F 33.8 °F 33.8 °F 87% 30.33 in 2.5 mi WSW 4.6 mph - N/A   Overcast
5:00 PM 38 °F - 34 °F 80% 30.36 in 7 mi WSW 2.2 mph - -   Overcast
5:20 PM 37.4 °F 32.8 °F 35.6 °F 93% 30.30 in 2.5 mi SW 5.8 mph - N/A   Overcast
5:50 PM 37.4 °F 32.8 °F 35.6 °F 93% 30.30 in 2.5 mi SW 5.8 mph - N/A   Overcast
6:20 PM 37.4 °F 32.1 °F 35.6 °F 93% 30.30 in 2.5 mi WSW 6.9 mph - N/A   Overcast
6:50 PM 37.4 °F 31.4 °F 35.6 °F 93% 30.30 in 2.5 mi West 8.1 mph - N/A   Overcast
7:20 PM 37.4 °F 31.4 °F 33.8 °F 87% 30.30 in 2.5 mi WSW 8.1 mph - N/A   Overcast
7:50 PM 37.4 °F 30.8 °F 35.6 °F 93% 30.27 in 2.5 mi West 9.2 mph - N/A   Overcast
8:00 PM 37 °F - 34 °F 84% 30.33 in 4 mi West 6.7 mph - -   Mist
8:20 PM 37.4 °F 30.8 °F 35.6 °F 93% 30.27 in 2.5 mi West 9.2 mph - N/A   Overcast
8:50 PM 35.6 °F 29.2 °F 33.8 °F 93% 30.27 in 2.5 mi West 8.1 mph - N/A   Overcast
9:20 PM 35.6 °F 28.6 °F 33.8 °F 93% 30.27 in 2.5 mi West 9.2 mph - N/A   Overcast
9:50 PM 35.6 °F 28.6 °F 33.8 °F 93% 30.27 in 2.5 mi WSW 9.2 mph - N/A   Overcast
10:20 PM 35.6 °F 28.0 °F 33.8 °F 93% 30.27 in 2.5 mi West 10.4 mph - N/A   Overcast
10:50 PM 35.6 °F 28.6 °F 33.8 °F 93% 30.27 in 2.5 mi WSW 9.2 mph - N/A   Overcast
11:00 PM 35 °F - 33 °F 87% 30.31 in 7 mi WSW 6.7 mph - -   Overcast
11:20 PM 35.6 °F 29.2 °F 33.8 °F 93% 30.24 in 2.5 mi WSW 8.1 mph - N/A   Overcast
11:50 PM 35.6 °F 29.2 °F 33.8 °F 93% 30.24 in 2.5 mi WSW 8.1 mph - N/A   Overcast